QPF
0.04 0.04 0.04 0.03 0.03 0.03 0.05 0.05 0.03 0.01 0.01 0.01 0.01 0.01 0.01 0.01 0.02 0.03 0.02 0.02 0.02 0.02 0.02 0.02 0.02 0.04 0.06 0.05 0.05 0.06 0.07 0.09 0.10 0.08 0.06 0.06 0.06 0.06 0.06 0.07 0.07 0.07 0.08
0.05 0.06 0.05 0.04 0.04 0.04 0.05 0.05 0.04 0.03 0.02 0.02 0.01 0.01 0.01 0.02 0.02 0.02 0.02 0.01 0.01 0.02 0.02 0.03 0.03 0.04 0.06 0.06 0.05 0.05 0.06 0.08 0.11 0.10 0.08 0.08 0.07 0.07 0.07 0.08 0.06 0.05 0.07
0.05 0.07 0.07 0.06 0.05 0.04 0.04 0.04 0.05 0.04 0.03 0.02 0.02 0.01 0.01 0.02 0.01 0.01 0.01 0.01 0.02 0.02 0.02 0.03 0.04 0.04 0.06 0.07 0.06 0.05 0.05 0.06 0.09 0.11 0.07 0.06 0.05 0.04 0.05 0.05 0.05 0.06 0.04
0.04 0.05 0.06 0.06 0.06 0.04 0.04 0.04 0.03 0.03 0.02 0.02 0.03 0.02 0.01 0.01 0.01 0.00 0.00 0.01 0.01 0.01 0.02 0.03 0.04 0.04 0.06 0.07 0.06 0.06 0.05 0.06 0.07 0.09 0.09 0.08 0.06 0.05 0.05 0.06 0.06 0.06 0.05
0.03 0.05 0.05 0.06 0.06 0.04 0.03 0.03 0.02 0.02 0.02 0.03 0.03 0.01 0.01 0.01 0.00 0.00 0.00 0.01 0.01 0.01 0.02 0.02 0.03 0.02 0.04 0.07 0.08 0.06 0.06 0.06 0.06 0.07 0.09 0.09 0.07 0.06 0.06 0.06 0.06 0.06 0.05
0.03 0.05 0.05 0.06 0.05 0.04 0.04 0.03 0.03 0.02 0.03 0.03 0.02 0.02 0.01 0.01 0.00 0.00 0.00 0.01 0.01 0.02 0.03 0.03 0.03 0.02 0.02 0.05 0.05 0.06 0.05 0.05 0.05 0.05 0.06 0.07 0.07 0.06 0.06 0.06 0.05 0.05 0.05
0.04 0.05 0.05 0.05 0.04 0.05 0.04 0.03 0.03 0.02 0.03 0.03 0.02 0.02 0.02 0.02 0.01 0.00 0.00 0.01 0.03 0.03 0.03 0.04 0.03 0.02 0.02 0.04 0.07 0.06 0.07 0.05 0.04 0.04 0.05 0.07 0.07 0.08 0.07 0.06 0.06 0.07 0.06
0.05 0.04 0.04 0.04 0.05 0.05 0.05 0.04 0.03 0.03 0.03 0.02 0.01 0.02 0.02 0.02 0.02 0.01 0.00 0.02 0.03 0.03 0.04 0.05 0.05 0.05 0.04 0.03 0.07 0.10 0.09 0.07 0.05 0.04 0.05 0.05 0.05 0.06 0.07 0.06 0.06 0.05 0.05
0.04 0.03 0.03 0.03 0.05 0.05 0.05 0.04 0.04 0.03 0.03 0.02 0.02 0.03 0.04 0.04 0.03 0.01 0.00 0.01 0.03 0.03 0.04 0.04 0.04 0.04 0.03 0.03 0.06 0.10 0.09 0.09 0.06 0.04 0.03 0.03 0.02 0.02 0.03 0.04 0.04 0.05 0.05
0.03 0.02 0.03 0.03 0.04 0.05 0.05 0.05 0.04 0.03 0.03 0.02 0.02 0.03 0.04 0.05 0.03 0.02 0.01 0.01 0.01 0.02 0.04 0.05 0.04 0.03 0.03 0.04 0.07 0.10 0.09 0.08 0.07 0.06 0.06 0.06 0.05 0.04 0.03 0.04 0.06 0.06 0.07
0.02 0.02 0.03 0.04 0.04 0.05 0.04 0.04 0.03 0.03 0.03 0.03 0.03 0.03 0.03 0.04 0.03 0.02 0.01 0.01 0.01 0.02 0.03 0.04 0.04 0.04 0.03 0.04 0.06 0.08 0.08 0.07 0.06 0.06 0.06 0.06 0.07 0.07 0.07 0.07 0.09 0.08 0.08
0.02 0.02 0.03 0.04 0.03 0.03 0.04 0.04 0.04 0.03 0.02 0.03 0.04 0.03 0.03 0.03 0.02 0.01 0.01 0.01 0.01 0.01 0.02 0.03 0.04 0.03 0.02 0.02 0.03 0.04 0.05 0.06 0.07 0.08 0.07 0.06 0.07 0.07 0.07 0.07 0.08 0.08 0.08
0.03 0.02 0.03 0.03 0.03 0.02 0.03 0.04 0.04 0.04 0.03 0.02 0.02 0.02 0.02 0.01 0.01 0.01 0.01 0.01 0.01 0.01 0.01 0.01 0.02 0.01 0.01 0.02 0.02 0.02 0.03 0.05 0.08 0.10 0.08 0.08 0.08 0.07 0.07 0.07 0.06 0.06 0.06
0.03 0.03 0.04 0.03 0.02 0.02 0.03 0.04 0.06 0.05 0.03 0.02 0.02 0.02 0.02 0.01 0.01 0.01 0.01 0.00 0.00 0.00 0.01 0.01 0.01 0.01 0.02 0.03 0.03 0.04 0.05 0.06 0.08 0.09 0.10 0.09 0.07 0.06 0.06 0.06 0.05 0.06 0.06
0.05 0.03 0.03 0.03 0.02 0.03 0.02 0.02 0.02 0.02 0.01 0.00 0.01 0.01 0.01 0.01 0.01 0.00 0.00 0.00 0.00 0.00 0.01 0.01 0.02 0.02 0.03 0.04 0.04 0.05 0.05 0.05 0.06 0.06 0.06 0.07 0.07 0.07 0.06 0.05 0.05 0.05 0.05
0.05 0.03 0.03 0.03 0.03 0.03 0.02 0.02 0.02 0.02 0.01 0.00 0.00 0.00 0.01 0.01 0.00 0.00 0.00 0.00 0.00 0.00 0.00 0.01 0.02 0.03 0.03 0.03 0.04 0.04 0.04 0.04 0.04 0.05 0.05 0.05 0.05 0.05 0.05 0.05 0.06 0.05 0.05
0.04 0.04 0.02 0.02 0.02 0.02 0.03 0.02 0.02 0.01 0.01 0.00 0.00 0.01 0.01 0.01 0.01 0.01 0.01 0.00 0.01 0.01 0.01 0.02 0.03 0.03 0.03 0.04 0.04 0.04 0.04 0.04 0.04 0.04 0.04 0.04 0.04 0.04 0.05 0.05 0.06 0.05 0.05
0.03 0.03 0.02 0.02 0.03 0.02 0.03 0.03 0.02 0.02 0.01 0.01 0.00 0.01 0.01 0.00 0.01 0.01 0.01 0.01 0.02 0.02 0.02 0.03 0.03 0.02 0.03 0.02 0.02 0.03 0.03 0.03 0.03 0.04 0.04 0.04 0.04 0.04 0.04 0.05 0.05 0.05 0.05
0.03 0.02 0.02 0.03 0.03 0.02 0.02 0.02 0.01 0.02 0.01 0.01 0.01 0.01 0.00 0.00 0.01 0.02 0.02 0.02 0.03 0.03 0.03 0.02 0.02 0.03 0.02 0.02 0.02 0.01 0.02 0.02 0.03 0.04 0.04 0.04 0.04 0.04 0.04 0.04 0.05 0.05 0.04
0.03 0.02 0.02 0.02 0.02 0.02 0.01 0.01 0.01 0.01 0.01 0.01 0.01 0.00 0.00 0.01 0.01 0.01 0.02 0.02 0.03 0.03 0.03 0.03 0.02 0.02 0.02 0.02 0.01 0.01 0.01 0.01 0.01 0.02 0.03 0.03 0.03 0.03 0.04 0.04 0.04 0.04 0.05
0.03 0.02 0.01 0.01 0.01 0.01 0.00 0.00 0.01 0.01 0.01 0.01 0.01 0.00 0.00 0.00 0.01 0.02 0.02 0.03 0.03 0.03 0.02 0.02 0.02 0.02 0.02 0.02 0.02 0.01 0.01 0.01 0.01 0.01 0.01 0.01 0.02 0.02 0.02 0.02 0.02 0.03 0.04
0.02 0.01 0.01 0.01 0.02 0.01 0.01 0.01 0.01 0.02 0.01 0.00 0.00 0.00 0.01 0.00 0.01 0.01 0.02 0.02 0.02 0.02 0.02 0.02 0.03 0.03 0.02 0.02 0.02 0.01 0.01 0.01 0.00 0.01 0.00 0.01 0.01 0.01 0.01 0.01 0.01 0.01 0.02
0.03 0.01 0.01 0.01 0.01 0.01 0.01 0.02 0.02 0.01 0.01 0.00 0.00 0.00 0.00 0.00 0.00 0.00 0.00 0.01 0.01 0.01 0.01 0.02 0.03 0.03 0.03 0.02 0.01 0.01 0.00 0.00 0.00 0.00 0.01 0.01 0.01 0.01 0.01 0.01 0.01 0.01 0.02
0.02 0.01 0.01 0.00 0.01 0.01 0.01 0.01 0.01 0.01 0.01 0.00 0.00 0.00 0.00 0.00 0.01 0.01 0.00 0.00 0.00 0.01 0.01 0.02 0.02 0.03 0.02 0.01 0.01 0.01 0.00 0.00 0.00 0.00 0.01 0.01 0.01 0.01 0.01 0.01 0.02 0.02 0.02
0.02 0.01 0.00 0.00 0.00 0.00 0.00 0.00 0.00 0.01 0.01 0.01 0.02 0.02 0.01 0.01 0.01 0.00 0.00 0.00 0.01 0.01 0.01 0.02 0.02 0.01 0.01 0.00 0.00 0.01 0.01 0.00 0.00 0.00 0.01 0.01 0.01 0.01 0.01 0.02 0.02 0.02 0.02
0.01 0.01 0.01 0.01 0.00 0.00 0.00 0.00 0.00 0.00 0.01 0.02 0.02 0.02 0.01 0.00 0.00 0.01 0.01 0.01 0.00 0.00 0.00 0.00 0.00 0.01 0.00 0.00 0.00 0.00 0.00 0.00 0.00 0.00 0.00 0.01 0.01 0.01 0.01 0.02 0.02 0.02 0.03
MSLP
1010.59 1010.53 1010.50 1010.48 1010.44 1010.37 1010.25 1010.08 1009.88 1009.66 1009.45 1009.25 1009.09 1008.97 1008.87 1008.80 1008.75 1008.70 1008.64 1008.58 1008.52 1008.47 1008.42 1008.39 1008.38 1008.39 1008.40 1008.40 1008.40 1008.38 1008.33 1008.26 1008.17 1008.07 1007.95 1007.84 1007.73 1007.63 1007.54 1007.46 1007.38 1007.32 1007.27
1010.61 1010.50 1010.42 1010.37 1010.32 1010.25 1010.15 1010.00 1009.81 1009.60 1009.38 1009.18 1009.00 1008.85 1008.75 1008.67 1008.61 1008.57 1008.53 1008.48 1008.43 1008.37 1008.32 1008.26 1008.21 1008.17 1008.14 1008.11 1008.08 1008.04 1007.99 1007.92 1007.84 1007.73 1007.62 1007.49 1007.34 1007.20 1007.04 1006.89 1006.74 1006.61 1006.49
1010.57 1010.41 1010.30 1010.22 1010.17 1010.10 1010.01 1009.89 1009.73 1009.55 1009.35 1009.16 1008.98 1008.84 1008.73 1008.65 1008.59 1008.54 1008.50 1008.45 1008.39 1008.31 1008.22 1008.13 1008.04 1007.96 1007.88 1007.82 1007.77 1007.72 1007.67 1007.61 1007.54 1007.44 1007.32 1007.18 1007.01 1006.82 1006.61 1006.40 1006.19 1005.99 1005.82
1010.52 1010.32 1010.19 1010.09 1010.03 1009.98 1009.91 1009.82 1009.70 1009.55 1009.39 1009.22 1009.07 1008.94 1008.83 1008.75 1008.69 1008.63 1008.57 1008.50 1008.41 1008.30 1008.17 1008.03 1007.89 1007.75 1007.64 1007.55 1007.48 1007.42 1007.38 1007.33 1007.27 1007.18 1007.06 1006.91 1006.71 1006.49 1006.24 1005.98 1005.71 1005.46 1005.24
1010.51 1010.30 1010.14 1010.04 1009.98 1009.93 1009.88 1009.82 1009.74 1009.63 1009.50 1009.37 1009.24 1009.12 1009.02 1008.94 1008.87 1008.80 1008.71 1008.60 1008.47 1008.31 1008.12 1007.93 1007.74 1007.56 1007.41 1007.28 1007.20 1007.13 1007.09 1007.05 1007.00 1006.92 1006.80 1006.64 1006.43 1006.18 1005.90 1005.60 1005.29 1005.00 1004.73
1010.56 1010.34 1010.18 1010.07 1010.01 1009.97 1009.94 1009.89 1009.83 1009.75 1009.65 1009.54 1009.43 1009.32 1009.23 1009.14 1009.05 1008.95 1008.83 1008.69 1008.50 1008.29 1008.05 1007.80 1007.56 1007.33 1007.14 1006.99 1006.88 1006.81 1006.76 1006.72 1006.67 1006.60 1006.48 1006.32 1006.10 1005.83 1005.53 1005.21 1004.89 1004.57 1004.27
1010.64 1010.44 1010.28 1010.18 1010.12 1010.08 1010.05 1010.01 1009.95 1009.88 1009.78 1009.67 1009.57 1009.46 1009.35 1009.25 1009.14 1009.02 1008.86 1008.68 1008.45 1008.19 1007.90 1007.60 1007.30 1007.03 1006.80 1006.62 1006.48 1006.40 1006.34 1006.30 1006.26 1006.18 1006.07 1005.90 1005.68 1005.42 1005.11 1004.78 1004.44 1004.11 1003.79
1010.73 1010.55 1010.41 1010.32 1010.26 1010.22 1010.17 1010.12 1010.04 1009.95 1009.84 1009.71 1009.59 1009.46 1009.34 1009.22 1009.09 1008.93 1008.76 1008.54 1008.27 1007.97 1007.64 1007.30 1006.96 1006.64 1006.37 1006.15 1005.99 1005.88 1005.81 1005.76 1005.71 1005.64 1005.53 1005.37 1005.16 1004.89 1004.59 1004.27 1003.93 1003.59 1003.27
1010.77 1010.63 1010.52 1010.44 1010.39 1010.33 1010.26 1010.17 1010.07 1009.93 1009.79 1009.63 1009.47 1009.32 1009.17 1009.03 1008.88 1008.71 1008.51 1008.27 1007.99 1007.66 1007.29 1006.91 1006.53 1006.18 1005.86 1005.60 1005.40 1005.26 1005.16 1005.10 1005.04 1004.97 1004.86 1004.71 1004.50 1004.25 1003.97 1003.65 1003.32 1003.00 1002.68
1010.74 1010.64 1010.57 1010.51 1010.45 1010.38 1010.29 1010.16 1010.01 1009.83 1009.64 1009.44 1009.25 1009.07 1008.90 1008.74 1008.57 1008.40 1008.19 1007.94 1007.64 1007.30 1006.91 1006.50 1006.08 1005.67 1005.31 1005.00 1004.75 1004.57 1004.44 1004.34 1004.26 1004.18 1004.08 1003.93 1003.74 1003.50 1003.23 1002.93 1002.61 1002.30 1001.99
1010.62 1010.57 1010.53 1010.49 1010.44 1010.35 1010.23 1010.08 1009.88 1009.66 1009.43 1009.19 1008.97 1008.77 1008.58 1008.42 1008.25 1008.08 1007.88 1007.63 1007.32 1006.96 1006.55 1006.11 1005.65 1005.19 1004.77 1004.40 1004.09 1003.85 1003.67 1003.54 1003.43 1003.33 1003.22 1003.07 1002.88 1002.66 1002.39 1002.10 1001.80 1001.49 1001.20
1010.43 1010.42 1010.41 1010.39 1010.34 1010.25 1010.11 1009.93 1009.70 1009.45 1009.19 1008.93 1008.70 1008.49 1008.30 1008.14 1007.99 1007.82 1007.63 1007.38 1007.08 1006.71 1006.28 1005.80 1005.29 1004.78 1004.29 1003.85 1003.47 1003.16 1002.92 1002.73 1002.58 1002.45 1002.31 1002.15 1001.96 1001.74 1001.47 1001.19 1000.89 1000.59 1000.30
1010.19 1010.20 1010.21 1010.21 1010.16 1010.06 1009.92 1009.72 1009.48 1009.22 1008.95 1008.69 1008.46 1008.26 1008.09 1007.94 1007.80 1007.65 1007.47 1007.23 1006.92 1006.54 1006.08 1005.57 1005.01 1004.44 1003.89 1003.37 1002.91 1002.53 1002.21 1001.95 1001.75 1001.57 1001.39 1001.21 1001.00 1000.76 1000.49 1000.20 999.90 999.60 999.31
1009.91 1009.94 1009.96 1009.96 1009.91 1009.82 1009.67 1009.47 1009.23 1008.97 1008.72 1008.47 1008.26 1008.08 1007.93 1007.80 1007.68 1007.55 1007.37 1007.13 1006.82 1006.42 1005.93 1005.38 1004.78 1004.16 1003.54 1002.95 1002.42 1001.95 1001.56 1001.23 1000.96 1000.72 1000.50 1000.28 1000.04 999.77 999.49 999.18 998.86 998.56 998.27
1009.62 1009.64 1009.66 1009.65 1009.60 1009.50 1009.35 1009.16 1008.93 1008.69 1008.46 1008.24 1008.05 1007.89 1007.77 1007.66 1007.55 1007.42 1007.24 1007.00 1006.67 1006.26 1005.75 1005.17 1004.54 1003.88 1003.21 1002.57 1001.98 1001.44 1000.98 1000.58 1000.24 999.94 999.66 999.38 999.10 998.80 998.49 998.16 997.83 997.52 997.23
1009.30 1009.31 1009.31 1009.29 1009.23 1009.12 1008.97 1008.79 1008.58 1008.36 1008.14 1007.95 1007.78 1007.64 1007.53 1007.43 1007.32 1007.18 1006.99 1006.74 1006.40 1005.97 1005.45 1004.86 1004.22 1003.54 1002.85 1002.19 1001.56 1000.99 1000.47 1000.01 999.61 999.24 998.90 998.57 998.24 997.90 997.55 997.21 996.87 996.54 996.26
1008.94 1008.93 1008.92 1008.87 1008.80 1008.68 1008.53 1008.35 1008.15 1007.95 1007.75 1007.57 1007.42 1007.28 1007.17 1007.05 1006.92 1006.76 1006.55 1006.28 1005.92 1005.49 1004.98 1004.40 1003.77 1003.11 1002.45 1001.79 1001.16 1000.57 1000.03 999.53 999.08 998.65 998.25 997.87 997.48 997.11 996.73 996.37 996.02 995.70 995.42
1008.53 1008.50 1008.47 1008.42 1008.33 1008.21 1008.05 1007.88 1007.68 1007.48 1007.29 1007.11 1006.95 1006.80 1006.66 1006.51 1006.35 1006.15 1005.91 1005.61 1005.25 1004.82 1004.33 1003.79 1003.21 1002.60 1001.99 1001.38 1000.78 1000.22 999.67 999.16 998.67 998.20 997.75 997.31 996.88 996.46 996.06 995.68 995.33 995.02 994.75
1008.05 1008.03 1008.00 1007.94 1007.85 1007.73 1007.57 1007.39 1007.20 1006.99 1006.79 1006.59 1006.41 1006.22 1006.04 1005.85 1005.64 1005.40 1005.12 1004.79 1004.42 1004.01 1003.55 1003.06 1002.55 1002.03 1001.50 1000.97 1000.44 999.92 999.41 998.91 998.40 997.90 997.41 996.92 996.44 995.98 995.55 995.16 994.81 994.51 994.26
1007.53 1007.53 1007.51 1007.47 1007.39 1007.27 1007.12 1006.94 1006.74 1006.52 1006.30 1006.08 1005.85 1005.63 1005.39 1005.14 1004.87 1004.58 1004.26 1003.91 1003.53 1003.14 1002.73 1002.31 1001.88 1001.45 1001.03 1000.60 1000.16 999.71 999.25 998.77 998.27 997.75 997.23 996.69 996.17 995.68 995.22 994.80 994.45 994.15 993.93
1006.99 1007.03 1007.05 1007.03 1006.98 1006.88 1006.74 1006.56 1006.35 1006.12 1005.87 1005.62 1005.35 1005.07 1004.78 1004.47 1004.14 1003.80 1003.44 1003.06 1002.69 1002.31 1001.95 1001.60 1001.26 1000.94 1000.62 1000.30 999.96 999.59 999.19 998.75 998.26 997.74 997.18 996.61 996.05 995.51 995.01 994.57 994.20 993.91 993.69
1006.47 1006.57 1006.64 1006.67 1006.64 1006.56 1006.43 1006.26 1006.04 1005.79 1005.52 1005.23 1004.93 1004.60 1004.26 1003.90 1003.53 1003.14 1002.75 1002.36 1001.98 1001.62 1001.30 1001.01 1000.75 1000.52 1000.30 1000.08 999.84 999.56 999.22 998.82 998.35 997.82 997.25 996.64 996.03 995.45 994.90 994.43 994.03 993.71 993.48
1006.02 1006.17 1006.29 1006.36 1006.37 1006.31 1006.19 1006.01 1005.79 1005.52 1005.23 1004.92 1004.59 1004.24 1003.87 1003.48 1003.07 1002.66 1002.24 1001.84 1001.46 1001.12 1000.83 1000.59 1000.39 1000.23 1000.10 999.96 999.80 999.59 999.31 998.95 998.51 997.98 997.38 996.75 996.09 995.45 994.85 994.32 993.87 993.52 993.26
1005.65 1005.85 1006.02 1006.12 1006.14 1006.09 1005.96 1005.77 1005.54 1005.26 1004.96 1004.64 1004.29 1003.93 1003.56 1003.16 1002.75 1002.34 1001.92 1001.52 1001.15 1000.83 1000.56 1000.34 1000.19 1000.08 1000.00 999.93 999.83 999.68 999.45 999.13 998.70 998.18 997.57 996.90 996.20 995.50 994.83 994.24 993.72 993.31 993.00
1005.36 1005.60 1005.77 1005.88 1005.90 1005.83 1005.69 1005.48 1005.23 1004.94 1004.64 1004.32 1003.99 1003.65 1003.30 1002.93 1002.55 1002.16 1001.76 1001.38 1001.03 1000.72 1000.47 1000.27 1000.14 1000.07 1000.02 999.99 999.93 999.82 999.64 999.34 998.94 998.42 997.80 997.10 996.35 995.59 994.85 994.17 993.58 993.09 992.71
1005.12 1005.36 1005.52 1005.61 1005.60 1005.50 1005.32 1005.09 1004.81 1004.52 1004.22 1003.93 1003.63 1003.34 1003.05 1002.74 1002.42 1002.08 1001.74 1001.40 1001.08 1000.79 1000.55 1000.37 1000.25 1000.19 1000.16 1000.15 1000.12 1000.04 999.87 999.61 999.22 998.70 998.07 997.34 996.55 995.72 994.91 994.15 993.47 992.89 992.43
Thickness
5673 5671 5669 5667 5665 5664 5661 5658 5656 5655 5653 5651 5649 5646 5644 5642 5639 5636 5633 5630 5628 5625 5623 5620 5617 5616 5614 5613 5612 5611 5610 5609 5607 5611 5613 5616 5616 5617 5618 5618 5619 5619 5620
5670 5668 5665 5664 5661 5659 5657 5655 5653 5651 5649 5647 5645 5642 5641 5638 5635 5632 5629 5626 5623 5620 5618 5616 5613 5612 5610 5608 5607 5607 5607 5606 5605 5605 5607 5609 5610 5611 5612 5612 5613 5615 5616
5666 5663 5660 5659 5657 5655 5654 5652 5650 5647 5645 5643 5642 5639 5637 5634 5630 5627 5624 5621 5619 5617 5615 5613 5610 5608 5605 5604 5603 5603 5602 5603 5602 5601 5602 5604 5605 5606 5606 5607 5608 5608 5610
5661 5658 5655 5654 5654 5653 5651 5649 5646 5644 5642 5640 5638 5635 5633 5629 5626 5622 5619 5617 5615 5613 5612 5610 5607 5605 5602 5600 5599 5598 5598 5598 5598 5597 5597 5599 5599 5601 5600 5599 5599 5601 5602
5656 5654 5652 5652 5652 5650 5648 5646 5644 5641 5640 5637 5634 5631 5629 5625 5621 5617 5614 5613 5611 5609 5609 5607 5605 5603 5600 5597 5595 5594 5594 5593 5593 5592 5592 5593 5593 5593 5593 5593 5593 5594 5596
5652 5651 5650 5650 5649 5647 5645 5643 5641 5638 5636 5633 5630 5627 5624 5622 5616 5613 5610 5609 5608 5606 5605 5604 5602 5601 5598 5595 5592 5591 5590 5589 5588 5588 5587 5586 5587 5588 5588 5588 5587 5586 5587
5649 5648 5648 5647 5645 5643 5642 5640 5637 5635 5632 5629 5627 5624 5621 5618 5614 5611 5607 5605 5605 5604 5602 5600 5599 5599 5595 5592 5591 5590 5589 5587 5585 5583 5583 5583 5583 5584 5584 5583 5582 5581 5583
5646 5645 5644 5642 5642 5640 5638 5636 5634 5631 5629 5627 5625 5622 5619 5616 5611 5609 5606 5605 5604 5603 5601 5599 5596 5594 5591 5587 5587 5587 5586 5586 5584 5582 5581 5581 5582 5582 5580 5579 5579 5579 5581
5643 5641 5641 5640 5638 5637 5635 5633 5631 5629 5626 5625 5624 5621 5618 5614 5610 5607 5602 5602 5601 5600 5599 5597 5594 5590 5586 5583 5582 5581 5581 5581 5581 5580 5578 5578 5578 5577 5575 5573 5573 5573 5574
5641 5640 5639 5637 5636 5635 5633 5632 5630 5628 5626 5624 5622 5620 5617 5613 5609 5605 5600 5599 5597 5596 5595 5593 5590 5586 5582 5578 5576 5574 5574 5575 5575 5574 5574 5574 5574 5574 5573 5570 5570 5568 5569
5640 5639 5638 5636 5635 5634 5633 5631 5630 5628 5625 5622 5620 5618 5616 5613 5608 5603 5598 5595 5593 5591 5590 5589 5587 5582 5578 5574 5570 5568 5568 5567 5567 5567 5568 5569 5570 5571 5571 5569 5568 5566 5566
5638 5637 5636 5636 5635 5635 5632 5630 5629 5626 5623 5621 5618 5616 5614 5611 5606 5601 5596 5591 5588 5586 5585 5584 5581 5577 5573 5570 5568 5566 5564 5561 5562 5562 5562 5563 5564 5565 5566 5566 5566 5565 5564
5636 5636 5635 5635 5635 5634 5632 5629 5627 5625 5622 5620 5617 5614 5611 5609 5604 5598 5594 5590 5586 5582 5581 5579 5575 5573 5570 5568 5566 5563 5560 5559 5558 5557 5556 5556 5557 5558 5559 5560 5561 5561 5560
5636 5634 5634 5633 5633 5633 5631 5630 5627 5625 5621 5618 5616 5612 5609 5606 5601 5596 5592 5588 5584 5581 5578 5575 5573 5572 5568 5564 5562 5560 5557 5554 5551 5550 5549 5550 5551 5552 5551 5552 5552 5553 5552
5635 5634 5634 5634 5633 5632 5630 5628 5627 5624 5621 5617 5614 5610 5605 5601 5595 5589 5585 5583 5578 5574 5570 5570 5571 5569 5565 5562 5558 5555 5552 5549 5546 5545 5544 5543 5544 5544 5544 5545 5545 5545 5544
5635 5634 5634 5634 5634 5633 5631 5628 5626 5623 5619 5616 5611 5607 5603 5598 5593 5588 5584 5579 5575 5570 5567 5568 5566 5563 5560 5556 5552 5549 5546 5542 5540 5538 5537 5536 5535 5535 5535 5536 5537 5537 5536
5635 5635 5636 5636 5635 5634 5633 5630 5626 5623 5619 5615 5611 5607 5602 5597 5592 5588 5583 5578 5574 5569 5567 5566 5563 5559 5554 5551 5547 5542 5539 5536 5534 5531 5530 5528 5527 5527 5527 5528 5528 5528 5528
5638 5637 5637 5637 5637 5636 5634 5632 5630 5626 5621 5618 5613 5607 5602 5597 5592 5587 5581 5576 5576 5572 5568 5564 5559 5555 5550 5545 5542 5537 5534 5531 5528 5525 5523 5521 5520 5519 5519 5519 5520 5519 5520
5639 5640 5640 5640 5639 5638 5637 5635 5633 5630 5625 5620 5615 5609 5602 5597 5591 5586 5580 5576 5575 5571 5566 5561 5556 5551 5545 5541 5536 5532 5529 5525 5521 5518 5516 5514 5512 5512 5512 5512 5512 5512 5512
5641 5640 5640 5640 5640 5640 5638 5636 5634 5630 5626 5621 5616 5611 5605 5599 5594 5589 5583 5578 5573 5568 5563 5557 5551 5546 5541 5536 5531 5527 5523 5518 5514 5511 5508 5506 5505 5505 5505 5505 5505 5505 5506
5644 5644 5640 5640 5640 5640 5639 5637 5634 5630 5626 5621 5616 5611 5604 5600 5595 5589 5584 5578 5572 5566 5560 5553 5547 5542 5536 5531 5525 5521 5516 5510 5505 5502 5500 5499 5499 5499 5498 5498 5498 5498 5498
5647 5647 5645 5643 5642 5640 5639 5637 5635 5631 5627 5622 5617 5611 5604 5599 5594 5588 5581 5576 5570 5563 5557 5550 5544 5537 5530 5524 5519 5514 5508 5502 5497 5494 5492 5492 5492 5492 5492 5491 5491 5491 5490
5648 5648 5647 5646 5644 5640 5639 5638 5635 5631 5628 5623 5618 5611 5604 5598 5593 5586 5580 5573 5566 5560 5554 5547 5540 5533 5526 5519 5513 5506 5499 5493 5489 5487 5485 5485 5485 5485 5485 5485 5485 5485 5484
5650 5649 5649 5647 5645 5643 5641 5639 5636 5632 5628 5622 5616 5610 5603 5597 5591 5584 5578 5570 5564 5558 5551 5544 5536 5528 5521 5514 5506 5499 5491 5486 5482 5481 5480 5479 5480 5480 5480 5479 5479 5479 5478
5652 5651 5650 5648 5646 5644 5642 5639 5636 5632 5627 5621 5616 5609 5603 5597 5590 5583 5576 5569 5562 5555 5548 5540 5532 5524 5516 5508 5500 5493 5487 5483 5479 5476 5475 5475 5476 5476 5475 5474 5473 5473 5472
5654 5653 5652 5650 5647 5645 5643 5639 5635 5631 5626 5620 5615 5608 5602 5596 5588 5581 5574 5567 5560 5552 5544 5536 5528 5519 5511 5503 5496 5489 5484 5481 5478 5474 5472 5472 5473 5472 5471 5470 5469 5468 5467